[[{"header":{"parameterUnit":"m.s-1","parameterCategory":1,"la1":30.2991,"la2":30.254,"lo1":-89.0895,"lo2":-89.0444,"dy":0.0017,"dx":0.0017,"nx":28,"ny":28,"refTime":"2023-04-03T21:00:00:Z","depth":0,"parameterNumber":2,"parameterNumberName":"U-component_of_WINDS"},"data":[0,0,0,0,0,0,0,0,0,0,0,0,0,0,0,0,0,0,0,0,0,0,0,0,0,0,0,0,0,0,0,0,0,0,0,0,0,0,0,0,0,0,0,0,0,0,0,0,0,0,0,0,0,0,0,0,0,0,-3.8813,-3.8814,0,-3.8857,-3.8858,-3.8858,-3.8831,-3.883,-3.8829,-3.8827,-3.8873,-3.8875,-3.8877,0,0,0,0,0,0,0,0,0,0,0,0,0,-3.8707,-3.8709,-3.8813,-3.8814,-3.8814,-3.8857,-3.8858,-3.8858,-3.8831,-3.883,-3.8828,-3.8827,-3.8872,-3.8875,-3.8877,0,0,0,0,0,0,0,0,0,0,0,0,0,-3.8752,-3.871,-3.8813,-3.8806,-3.8806,-3.8857,-3.8858,-3.8858,-3.8832,-3.883,-3.8828,-3.8826,-3.8871,-3.8874,-3.8878,-3.8938,0,0,-3.8889,-3.889,0,0,0,0,0,0,0,0,-3.875,-3.8756,-3.8807,-3.8807,-3.8807,-3.8837,-3.8837,-3.8885,-3.8832,-3.8822,-3.8827,-3.8825,-3.8862,-3.8866,-3.8879,-3.894,-3.8942,-3.8889,-3.8891,-3.8893,-3.8894,0,0,0,0,0,0,0,-3.8747,-3.8754,-3.8831,-3.8807,-3.8807,-3.8801,-3.8805,-3.8846,-3.8852,-3.8823,-3.8821,-3.8826,-3.8862,-3.8875,-3.888,-3.8943,-3.8889,-3.8892,-3.8894,-3.8896,-3.9056,-3.9059,0,0,0,0,0,0,-3.8744,-3.8752,-3.8829,-3.8832,-3.8773,-3.8805,-3.8809,-3.8829,-3.8852,-3.8853,-3.8828,-3.8825,-3.887,-3.8875,-3.8881,-3.8953,-3.8893,-3.8896,-3.8898,-3.9054,-3.9057,-3.9059,0,0,0,0,0,0,-3.8742,-3.8751,-3.8828,-3.8791,-3.8801,-3.8808,-3.8831,-3.8831,-3.8844,-3.8856,-3.8857,-3.8841,-3.8869,-3.8876,-3.8924,-3.8954,-3.8898,-3.8901,-3.9052,-3.9055,-3.9058,-3.9098,0,0,0,0,0,0,-3.8739,-3.8751,-3.8773,-3.8792,-3.8803,-3.887,-3.8833,-3.8833,-3.8851,-3.8847,-3.8868,-3.8869,-3.8868,-3.8919,-3.8928,-3.8958,-3.8904,-3.9049,-3.9053,-3.9057,-3.9094,-3.9102,-3.9109,0,0,0,0,0,-3.8735,-3.8783,-3.8775,-3.8784,-3.8831,-3.8872,-3.8878,-3.8875,-3.8853,-3.8876,-3.8884,-3.8869,-3.895,-3.8924,-3.8934,-3.8966,-3.9047,-3.9052,-3.9057,-3.909,-3.91,-3.9109,0,0,0,0,0,0,-3.8768,-3.8785,-3.8776,-3.8831,-3.885,-3.8867,-3.8896,-3.8885,-3.8911,-3.8906,-3.8902,-3.8907,-3.8957,-3.8966,-3.8938,-3.9026,-3.8995,-3.9002,-3.9017,-3.9027,-3.9034,-3.903,-3.8907,0,0,0,0,0,-3.8781,-3.8812,-3.8826,-3.8873,-3.8883,-3.8888,-3.8906,-3.8902,-3.8921,-3.8929,-3.894,-3.8959,-3.8989,-3.9009,-3.9037,-3.9095,-3.9099,-3.9122,-3.913,-3.9136,-3.9141,-3.9173,-3.9183,-3.9075,-3.9075,-3.9075,0,0,-3.8809,-3.8823,-3.8843,-3.888,-3.8894,-3.8926,-3.8895,-3.893,-3.8954,-3.8934,-3.898,-3.8989,-3.9011,-3.9064,-3.9088,-3.9073,-3.9172,-3.9142,-3.9147,-3.9149,-3.9179,-3.9189,-3.9198,-3.9078,-3.9078,-3.9077,0,0,-3.8877,-3.8891,-3.8931,-3.8946,-3.8968,-3.8971,-3.8981,-3.9,-3.9004,-3.9051,-3.9036,-3.9065,-3.9117,-3.9132,-3.9147,-3.9222,-3.9209,-3.9231,-3.927,-3.9301,-3.9309,-3.9317,-3.9343,-3.9352,-3.9237,-3.9237,-3.9237,0,-3.8909,-3.8957,-3.8953,-3.899,-3.9007,-3.8991,-3.9032,-3.9047,-3.9077,-3.9089,-3.9072,-3.9136,-3.915,-3.9206,-3.9225,-3.9238,-3.9249,-3.9228,-3.9308,-3.9316,-3.9323,-3.9347,-3.9357,-3.924,-3.9239,-3.9239,-3.9239,0,-3.8995,-3.9029,-3.9059,-3.9088,-3.9109,-3.9148,-3.915,-3.9171,-3.9166,-3.9171,-3.9219,-3.9234,-3.9265,-3.9279,-3.9274,-3.9335,-3.9325,-3.9309,-3.9278,-3.9336,-3.9359,-3.9368,-3.9243,-3.9242,-3.9242,-3.9241,0,0,-3.9083,-3.9111,-3.9122,-3.9135,-3.9158,-3.9184,-3.9222,-3.9252,-3.927,-3.9292,-3.9324,-3.9368,-3.9353,-3.937,-3.9367,-3.9394,-3.9452,-3.9374,-3.9375,-3.9387,-3.952,-3.9531,-3.9542,-3.9444,-3.9446,-3.9447,-3.9518,0,-3.9152,-3.9218,-3.9216,-3.9278,-3.9309,-3.9294,-3.9328,-3.9346,-3.9352,-3.9379,-3.9386,-3.9417,-3.9395,-3.9405,-3.9431,-3.9439,-3.9478,-3.9434,-3.9473,-3.9475,-3.9467,-3.9555,-3.9567,-3.9633,-3.9527,-3.9528,-3.9529,0,-3.924,-3.9264,-3.9329,-3.9348,-3.9361,-3.9391,-3.9418,-3.9445,-3.9465,-3.9468,-3.9487,-3.948,-3.9519,-3.9488,-3.9542,-3.9512,-3.9528,-3.9535,-3.9537,-3.954,-3.9505,-3.9559,-3.9654,-3.9663,-3.9544,-3.9543,-3.9542,0,-3.9297,-3.9346,-3.9391,-3.9403,-3.9426,-3.9447,-3.9458,-3.9477,-3.9495,-3.9519,-3.9531,-3.956,-3.9576,-3.9598,-3.9599,-3.9577,-3.9654,-3.9623,-3.9656,-3.9656,-3.9672,-3.9671,-3.977,-3.9684,-3.9684,-3.9684,-3.9684,0,-3.9373,-3.9413,-3.9417,-3.9444,-3.9489,-3.9487,-3.9531,-3.954,-3.9557,-3.9586,-3.9576,-3.9603,-3.9604,-3.9632,-3.9634,-3.9678,-3.9685,-3.9688,-3.9688,-3.9688,-3.9688,-3.9698,-3.9693,-3.9687,-3.9686,-3.9686,-3.9685,0,-3.9444,-3.9448,-3.9496,-3.9514,-3.9519,-3.9551,-3.9567,-3.9593,-3.9599,-3.9636,-3.9645,-3.9653,-3.9686,-3.969,-3.9728,-3.9729,-3.9782,-3.9777,-3.9775,-3.9774,-3.9807,-3.9803,-3.9915,-3.9929,-3.9835,-3.9836,-3.9837,0,-3.9491,-3.9522,-3.9543,-3.9562,-3.9574,-3.9604,-3.9623,-3.9622,-3.9642,-3.9668,-3.9691,-3.9723,-3.9748,-3.9802,-3.9811,-3.9841,-3.9836,-3.9873,-3.9841,-3.984,-3.9836,-3.9834,-3.9836,-3.9879,-3.988,-3.9881,-3.9882,0,-3.9575,-3.9576,-3.9603,-3.9631,-3.9654,-3.9676,-3.9696,-3.9712,-3.9715,-3.9738,-3.9771,-3.9791,-3.983,-3.9862,-3.9891,-3.9902,-3.9893,-3.9892,-3.9901,-3.9902,-3.9899,-3.99,-3.9791,-3.9889,-3.9889,-3.9888,-3.9888,-3.9887,-3.9635,-3.9662,-3.9681,-3.9711,-3.9727,-3.9747,-3.9772,-3.9781,-3.9809,-3.984,-3.9839,-3.9875,-3.9895,-3.9933,-3.9947,-3.9976,-3.9963,-3.9977,-3.998,-3.9983,-3.9986,-3.9895,-3.9981,-3.9981,-3.9981,-3.9981,-3.998,0,-3.9718,-3.973,-3.9758,-3.9787,-3.9811,-3.9801,-3.9823,-3.9844,-3.9876,-3.9896,-3.9921,-3.9959,-3.999,-4.0003,-4.0033,-4.0054,-4.005,-4.0062,-4.0059,-4.0062,-3.9996,-3.9984,-4.0064,-4.0064,-4.0064,-4.0064,-4.0064,-4.0064,-3.9764,-3.9808,-3.9811,-3.9862,-3.9874,-3.9909,-3.9923,-3.9941,-3.9957,-4.0,-4.0025,-4.0033,-4.005,-4.0081,-4.0109,-4.0112,-4.0123,-4.0137,-4.0138,-4.0075,-4.0067,-4.0059,-4.0048,-4.014,-4.014,-4.0202,-4.0202,-4.0203]},{"header":{"parameterUnit":"m.s-1","parameterCategory":1,"la1":30.2991,"la2":30.254,"lo1":-89.0895,"lo2":-89.0444,"dy":0.0017,"dx":0.0017,"nx":28,"ny":28,"refTime":"2023-04-03T21:00:00:Z","depth":0,"parameterNumber":3,"parameterNumberName":"V-component_of_WINDS"},"data":[0,0,0,0,0,0,0,0,0,0,0,0,0,0,0,0,0,0,0,0,0,0,0,0,0,0,0,0,0,0,0,0,0,0,0,0,0,0,0,0,0,0,0,0,0,0,0,0,0,0,0,0,0,0,0,0,0,0,4.7665,4.7665,0,4.7674,4.7674,4.7674,4.7637,4.7636,4.7635,4.7634,4.7643,4.7644,4.7646,0,0,0,0,0,0,0,0,0,0,0,0,0,4.7617,4.7618,4.7665,4.7665,4.7665,4.7674,4.7674,4.7674,4.7637,4.7636,4.7634,4.7633,4.7643,4.7644,4.7646,0,0,0,0,0,0,0,0,0,0,0,0,0,4.7633,4.7619,4.7665,4.7648,4.7646,4.7674,4.7674,4.7674,4.7637,4.7636,4.7634,4.7632,4.7642,4.7644,4.7646,4.7691,0,0,4.7652,4.7653,0,0,0,0,0,0,0,0,4.7632,4.7635,4.765,4.7649,4.7647,4.7653,4.7661,4.768,4.7638,4.7641,4.7634,4.7632,4.7648,4.7649,4.7654,4.7691,4.7692,4.7652,4.7653,4.7654,4.7655,0,0,0,0,0,0,0,4.7631,4.7634,4.7669,4.765,4.7649,4.764,4.7641,4.7664,4.7653,4.764,4.7638,4.7639,4.7647,4.7653,4.7654,4.7692,4.7652,4.7654,4.7655,4.7656,4.7769,4.7771,0,0,0,0,0,0,4.7632,4.7634,4.7668,4.7669,4.7636,4.7642,4.7643,4.7653,4.7653,4.7651,4.7641,4.7637,4.765,4.7652,4.7655,4.7709,4.7654,4.7656,4.7657,4.7767,4.777,4.7772,0,0,0,0,0,0,4.7631,4.7636,4.7668,4.7651,4.7654,4.7645,4.7656,4.7654,4.766,4.7653,4.7651,4.7649,4.7649,4.7652,4.7683,4.7709,4.7657,4.7658,4.7765,4.7768,4.7771,4.7817,0,0,0,0,0,0,4.763,4.7636,4.7652,4.7651,4.7655,4.7696,4.7658,4.7655,4.7663,4.7659,4.766,4.7659,4.7648,4.768,4.7685,4.7711,4.766,4.7763,4.7767,4.777,4.7814,4.7821,4.7828,0,0,0,0,0,4.7629,4.7664,4.7653,4.7657,4.7675,4.7697,4.7699,4.7686,4.7665,4.7682,4.7679,4.7659,4.7705,4.7684,4.7688,4.7715,4.7761,4.7765,4.777,4.781,4.782,4.7828,0,0,0,0,0,0,4.7668,4.7664,4.7651,4.7688,4.7693,4.7691,4.7711,4.7696,4.7708,4.7703,4.7686,4.7687,4.7721,4.7721,4.7697,4.776,4.773,4.7735,4.7759,4.7768,4.7775,4.7775,4.7662,0,0,0,0,0,4.7681,4.7698,4.7694,4.7727,4.773,4.7721,4.7729,4.7719,4.7724,4.7726,4.7724,4.773,4.7746,4.7757,4.7771,4.7813,4.7814,4.7834,4.7842,4.7848,4.7853,4.7877,4.7887,4.7785,4.7785,4.7785,0,0,4.7707,4.7708,4.7719,4.7735,4.7737,4.7757,4.7723,4.7744,4.7759,4.7729,4.7759,4.7758,4.7764,4.7801,4.7817,4.7802,4.7881,4.7853,4.7858,4.786,4.7883,4.7892,4.7901,4.7788,4.7788,4.7787,0,0,4.7767,4.7768,4.7796,4.78,4.7805,4.7799,4.7806,4.7807,4.7805,4.7835,4.7814,4.7831,4.7859,4.7864,4.7871,4.7935,4.7918,4.794,4.7978,4.8003,4.8011,4.8018,4.8042,4.8051,4.7945,4.7945,4.7945,0,4.7799,4.7827,4.7812,4.7836,4.7844,4.7819,4.7849,4.7853,4.7863,4.787,4.7852,4.7888,4.7889,4.7929,4.7945,4.795,4.7959,4.794,4.8011,4.8018,4.8024,4.8047,4.8056,4.7948,4.7947,4.7947,4.7947,0,4.7868,4.7888,4.7911,4.7922,4.7932,4.7959,4.7949,4.7962,4.7951,4.7947,4.7978,4.798,4.7995,4.8004,4.7992,4.8042,4.8033,4.8013,4.7983,4.8037,4.8058,4.8067,4.7951,4.795,4.795,4.7949,0,0,4.7951,4.7955,4.7964,4.797,4.7975,4.799,4.8016,4.8032,4.8044,4.8052,4.8074,4.8099,4.8082,4.809,4.8079,4.81,4.8153,4.8078,4.8078,4.8094,4.8211,4.8226,4.8237,4.8142,4.8144,4.8145,4.8211,0,4.8011,4.8055,4.8044,4.8089,4.8108,4.8086,4.8109,4.8115,4.8113,4.8129,4.8127,4.8145,4.812,4.8125,4.8145,4.8143,4.8177,4.8138,4.8164,4.8165,4.8164,4.8248,4.8264,4.8326,4.8219,4.822,4.8221,0,4.8085,4.8098,4.8145,4.8149,4.8157,4.8178,4.8192,4.8208,4.8215,4.8212,4.8222,4.8208,4.8235,4.8204,4.8242,4.8216,4.8226,4.8227,4.8229,4.8232,4.8197,4.8254,4.8345,4.8355,4.8234,4.8233,4.8232,0,4.8144,4.8172,4.8204,4.8209,4.8214,4.823,4.8233,4.8239,4.8249,4.8262,4.8269,4.8285,4.8294,4.8307,4.8298,4.8276,4.8338,4.8306,4.8338,4.8338,4.8352,4.8352,4.8448,4.8357,4.8357,4.8357,4.8357,0,4.8212,4.8242,4.8231,4.8251,4.8285,4.8272,4.8306,4.8306,4.8312,4.8332,4.8313,4.8333,4.832,4.8339,4.8332,4.8366,4.837,4.8369,4.8367,4.8371,4.8372,4.8378,4.8374,4.8359,4.8359,4.8358,4.8358,0,4.8282,4.8276,4.831,4.8313,4.8314,4.8339,4.8342,4.8361,4.8358,4.8384,4.839,4.8385,4.8407,4.8399,4.8422,4.8418,4.8461,4.8453,4.8459,4.8458,4.849,4.8488,4.8595,4.8609,4.8508,4.8509,4.851,0,4.8327,4.835,4.8355,4.8368,4.8373,4.8393,4.8404,4.8393,4.8406,4.8417,4.8436,4.8456,4.8471,4.8507,4.8506,4.8524,4.8517,4.8553,4.852,4.8524,4.852,4.8519,4.8522,4.856,4.8562,4.8563,4.8563,0,4.8407,4.8403,4.842,4.8437,4.8451,4.8464,4.8475,4.8486,4.8476,4.8491,4.8514,4.8526,4.855,4.8571,4.8588,4.8592,4.8577,4.8574,4.8583,4.8588,4.8591,4.8592,4.8479,4.8572,4.8571,4.857,4.857,4.8569,4.8467,4.8487,4.8495,4.8516,4.8523,4.8534,4.8553,4.8553,4.8571,4.859,4.8583,4.8609,4.8618,4.8639,4.8645,4.8666,4.8652,4.8664,4.8667,4.8671,4.8676,4.8587,4.8669,4.8668,4.8668,4.8668,4.8668,0,4.8548,4.8552,4.8571,4.8588,4.8604,4.8589,4.86,4.8615,4.8639,4.8648,4.8665,4.8691,4.8712,4.8713,4.8733,4.875,4.8744,4.8756,4.8755,4.8756,4.8686,4.8678,4.876,4.876,4.876,4.876,4.876,4.876,4.8592,4.8626,4.8624,4.8662,4.8666,4.8692,4.8701,4.8711,4.8719,4.875,4.8767,4.8768,4.8775,4.8795,4.8814,4.8814,4.8823,4.8838,4.8835,4.877,4.8761,4.8752,4.8744,4.884,4.884,4.8904,4.8904,4.8905]}]]